STARLINK-35941

Last updated on Wed Dec 31 2025 00:02:06 GMT+0000 (Coordinated Universal Time)

1 66583U 25268AC 25364.58335648 .00076942 00000+0 27811-2 0 9991 2 66583 43.0013 17.0101 0001012 289.4441 104.7195 15.27525697 6021
UTC large
Height (km)
Speed (km/s)
/
Latitude / Longitude
Inclination (degrees)
Orbital Period (minutes)
Azimuth
Elevation
Range (km)
Doppler Factor

Next 0 passes for location: London (51.5072 / 0.1276)

Sorry there are no passes over London.